Date,TemperatureHighF,TemperatureAvgF,TemperatureLowF,DewpointHighF,DewpointAvgF,DewpointLowF,HumidityHigh,HumidityAvg,HumidityLow,PressureMaxIn,PressureMinIn,WindSpeedMaxMPH,WindSpeedAvgMPH,GustSpeedMaxMPH,PrecipitationSumIn
2013-2-1,4.8,-1.2,-11.0,0.8,-7.2,-15.5,84,75,66,30.24,30.03,14,4,14,0.00
2013-2-2,17.8,7.3,-2.6,8.6,1.9,-6.8,86,79,65,30.04,29.93,10,1,10,0.03
2013-2-3,21.0,12.9,3.0,12.1,7.6,-0.8,87,80,66,29.97,29.87,14,2,14,0.00
2013-2-4,21.0,12.1,1.2,13.7,7.5,-2.9,89,82,69,29.93,29.85,14,3,14,0.00
2013-2-5,29.5,18.6,-0.8,24.4,14.2,-4.9,88,83,77,30.03,29.71,14,2,14,0.00
2013-2-6,32.9,17.3,-6.9,29.3,12.3,-11.0,87,81,68,30.14,29.98,10,1,10,0.00
2013-2-7,34.9,31.0,22.1,32.7,28.8,19.8,94,91,86,30.03,29.86,8,1,8,0.12
2013-2-8,30.4,18.9,-2.2,21.7,14.2,-6.3,91,82,69,30.32,30.03,0,0,0,0.12
2013-2-9,28.9,20.7,-3.3,24.8,17.3,-6.8,91,87,81,30.32,29.99,0,0,0,0.00
2013-2-10,41.9,32.6,16.3,40.4,30.6,14.0,95,92,86,30.00,29.33,24,4,24,0.37
2013-2-11,36.0,28.9,22.8,32.1,24.4,17.9,90,83,77,29.95,29.35,28,12,28,0.00
2013-2-12,30.9,22.2,13.6,22.4,16.8,10.7,89,80,71,30.02,29.80,16,4,16,0.00
2013-2-13,37.2,25.3,9.1,29.0,20.5,6.3,90,82,70,29.80,29.61,11,1,11,0.00
2013-2-14,38.3,32.7,25.5,32.0,26.7,20.2,91,79,61,29.95,29.52,17,3,17,0.02
2013-2-15,28.9,19.3,9.3,21.0,9.0,0.7,78,64,49,30.15,29.94,14,1,14,0.00
2013-2-16,21.0,8.1,-2.9,9.6,-0.3,-8.1,82,69,50,30.14,30.07,11,0,11,0.00
2013-2-17,27.1,13.2,-7.1,19.8,5.1,-11.7,82,71,56,30.13,29.83,11,2,11,0.00
2013-2-18,46.0,32.8,20.5,35.3,26.8,16.1,92,79,66,29.83,29.44,14,2,14,0.06
2013-2-19,20.3,11.9,4.8,16.2,5.6,-1.9,86,76,65,30.14,29.54,20,1,20,0.00
2013-2-20,26.4,12.7,2.8,13.1,4.0,-3.6,81,68,55,30.31,30.14,10,2,10,0.00
2013-2-21,25.0,17.3,5.5,22.1,12.9,0.9,92,83,74,30.35,29.94,23,8,24,0.00
2013-2-22,32.5,26.4,23.2,28.5,23.5,21.0,92,89,84,29.94,29.73,22,5,22,0.04
2013-2-23,29.1,24.1,19.0,21.5,18.7,13.9,86,80,69,29.89,29.79,16,6,16,0.02
2013-2-24,41.7,22.1,3.9,27.0,14.6,0.6,87,74,53,30.08,29.89,6,0,6,0.00
2013-2-25,40.3,25.7,10.2,28.1,19.2,7.1,88,77,61,30.10,29.96,8,1,8,0.00
2013-2-26,32.9,30.1,27.9,28.2,25.8,22.8,94,84,76,29.96,29.60,32,14,32,0.00
2013-2-27,34.2,30.3,27.3,31.7,28.4,25.6,94,92,90,29.75,29.59,21,5,23,0.14
2013-2-28,35.4,30.8,23.5,29.0,25.7,18.3,91,81,67,30.08,29.75,17,4,17,0.06